Location: Newark
(58.9986°N, 38.5006°E)
Time: 04:33:50
(UTC+00:00)

N. Korean satellite - Pass Details

Date: 10 December 2019
Orbit: 454 x 507 km, 97.2° (Epoch: 28 January)

Event Time Altitude Azimuth Distance (km) Brightness Sun altitude
Rises 15:40:38 0° 215° (SW) 2,607 10.9 -22.3°
Reaches altitude 10° 15:43:38 10° 243° (WSW) 1,723 10.3 -22.7°
Maximum altitude 15:45:35 14° 274° (W) 1,503 10.0 -22.9°
Drops below altitude 10° 15:47:31 10° 306° (NW) 1,720 9.9 -23.2°
Sets 15:50:31 0° 333° (NNW) 2,601 10.5 -23.5°
